Time,TemperatureF,DewpointF,PressureIn,WindDirection,WindDirectionDegrees,WindSpeedMPH,WindSpeedGustMPH,Humidity,HourlyPrecipIn,Conditions,Clouds,dailyrainin,SoftwareType,DateUTC
2013-07-28 00:00:00,47.4,43.1,29.47,NE,45,0.0,0.0,85,0.00,,,-99.99,VWS V12.07,2013-07-28 05:00:00,
2013-07-28 00:05:00,47.4,43.1,29.47,NE,45,0.0,0.0,85,0.00,,,-99.99,VWS V12.07,2013-07-28 05:05:00,
2013-07-28 00:15:00,47.3,43.3,29.47,NNE,22,0.0,0.0,86,0.00,,,-99.99,VWS V12.07,2013-07-28 05:15:00,
2013-07-28 00:20:00,47.1,43.1,29.47,NNE,22,0.0,0.0,86,0.00,,,-99.99,VWS V12.07,2013-07-28 05:20:00,
2013-07-28 00:25:00,47.1,43.1,29.47,NNE,22,0.0,0.0,86,0.00,,,-99.99,VWS V12.07,2013-07-28 05:25:00,
2013-07-28 00:30:00,47.1,43.1,29.47,NNE,22,0.0,0.0,86,0.00,,,-99.99,VWS V12.07,2013-07-28 05:30:00,
2013-07-28 00:35:00,47.1,43.1,29.47,NNE,22,4.0,4.0,86,0.00,,,-99.99,VWS V12.07,2013-07-28 05:35:00,
2013-07-28 00:40:00,47.1,43.1,29.47,NNE,22,0.0,4.0,86,0.00,,,-99.99,VWS V12.07,2013-07-28 05:40:00,
2013-07-28 00:45:00,46.9,42.9,29.47,NNE,22,0.0,4.0,86,0.00,,,-99.99,VWS V12.07,2013-07-28 05:45:00,
2013-07-28 00:50:00,46.9,42.9,29.47,NE,45,0.0,0.0,86,0.00,,,-99.99,VWS V12.07,2013-07-28 05:50:00,
2013-07-28 00:55:00,46.7,42.7,29.47,NE,45,0.0,0.0,86,0.00,,,-99.99,VWS V12.07,2013-07-28 05:55:00,
2013-07-28 01:00:00,46.5,42.5,29.47,NE,45,0.0,0.0,86,0.00,,,-99.99,VWS V12.07,2013-07-28 06:00:00,
2013-07-28 01:05:00,46.5,42.5,29.47,NE,45,0.0,0.0,86,0.00,,,-99.99,VWS V12.07,2013-07-28 06:05:00,
2013-07-28 01:10:00,46.2,42.2,29.47,NE,45,0.0,0.0,86,0.00,,,-99.99,VWS V12.07,2013-07-28 06:10:00,
2013-07-28 01:15:00,46.2,42.2,29.47,NE,45,0.0,0.0,86,0.00,,,-99.99,VWS V12.07,2013-07-28 06:15:00,
2013-07-28 01:20:00,46.0,42.0,29.47,NE,45,0.0,0.0,86,0.00,,,-99.99,VWS V12.07,2013-07-28 06:20:00,
2013-07-28 01:25:00,46.0,42.0,29.47,NE,45,0.0,0.0,86,0.00,,,-99.99,VWS V12.07,2013-07-28 06:25:00,
2013-07-28 01:30:00,46.0,42.0,29.47,NE,45,0.0,0.0,86,0.00,,,-99.99,VWS V12.07,2013-07-28 06:30:00,
2013-07-28 01:35:00,46.0,42.0,29.47,NE,45,0.0,0.0,86,0.00,,,-99.99,VWS V12.07,2013-07-28 06:35:00,
2013-07-28 01:40:00,46.0,42.0,29.47,NE,45,0.0,0.0,86,0.00,,,-99.99,VWS V12.07,2013-07-28 06:40:00,
2013-07-28 01:45:00,46.0,42.0,29.47,NE,45,0.0,1.3,86,0.00,,,-99.99,VWS V12.07,2013-07-28 06:45:00,
2013-07-28 01:50:00,45.6,41.7,29.47,NE,45,0.0,0.0,86,0.00,,,-99.99,VWS V12.07,2013-07-28 06:50:00,
2013-07-28 01:55:00,45.8,42.2,29.47,NE,45,0.0,0.0,87,0.00,,,-99.99,VWS V12.07,2013-07-28 06:55:00,
2013-07-28 02:00:00,45.8,42.2,29.47,NE,45,0.0,0.0,87,0.00,,,-99.99,VWS V12.07,2013-07-28 07:00:00,
2013-07-28 02:05:00,46.0,42.3,29.47,NE,45,0.0,0.0,87,0.00,,,-99.99,VWS V12.07,2013-07-28 07:05:00,
2013-07-28 02:10:00,45.8,42.2,29.46,NE,45,0.0,0.0,87,0.00,,,-99.99,VWS V12.07,2013-07-28 07:10:00,
2013-07-28 02:15:00,46.0,42.3,29.46,NE,45,0.0,0.0,87,0.00,,,-99.99,VWS V12.07,2013-07-28 07:15:00,
2013-07-28 02:20:00,46.0,42.3,29.46,NE,45,0.0,0.0,87,0.00,,,-99.99,VWS V12.07,2013-07-28 07:20:00,
2013-07-28 02:25:00,45.8,42.2,29.46,NE,45,0.0,0.0,87,0.00,,,-99.99,VWS V12.07,2013-07-28 07:25:00,
2013-07-28 02:30:00,46.0,42.3,29.46,NE,45,0.0,0.0,87,0.00,,,-99.99,VWS V12.07,2013-07-28 07:30:00,
2013-07-28 02:35:00,45.8,42.2,29.46,NE,45,0.0,0.0,87,0.00,,,-99.99,VWS V12.07,2013-07-28 07:35:00,
2013-07-28 02:40:00,45.6,42.0,29.46,NE,45,0.0,0.0,87,0.00,,,-99.99,VWS V12.07,2013-07-28 07:40:00,
2013-07-28 02:45:00,45.6,42.0,29.46,NE,45,0.0,0.0,87,0.00,,,-99.99,VWS V12.07,2013-07-28 07:45:00,
2013-07-28 02:50:00,45.6,42.0,29.46,NE,45,0.0,0.0,87,0.00,,,-99.99,VWS V12.07,2013-07-28 07:50:00,
2013-07-28 02:55:00,45.5,41.9,29.46,NE,45,0.0,0.0,87,0.00,,,-99.99,VWS V12.07,2013-07-28 07:55:00,
2013-07-28 03:00:00,45.3,41.7,29.46,NE,45,0.0,0.0,87,0.00,,,-99.99,VWS V12.07,2013-07-28 08:00:00,
2013-07-28 03:05:00,45.1,41.5,29.46,NE,45,0.0,0.0,87,0.00,,,-99.99,VWS V12.07,2013-07-28 08:05:00,
2013-07-28 03:10:00,45.1,41.5,29.46,NE,45,0.0,0.0,87,0.00,,,-99.99,VWS V12.07,2013-07-28 08:10:00,
2013-07-28 03:15:00,44.9,41.3,29.46,NE,45,0.0,0.0,87,0.00,,,-99.99,VWS V12.07,2013-07-28 08:15:00,
2013-07-28 03:20:00,44.7,41.1,29.46,NE,45,0.0,0.0,87,0.00,,,-99.99,VWS V12.07,2013-07-28 08:20:00,
2013-07-28 03:25:00,44.7,41.1,29.46,NE,45,0.0,0.0,87,0.00,,,-99.99,VWS V12.07,2013-07-28 08:25:00,
2013-07-28 03:30:00,44.4,40.8,29.45,NE,45,0.0,0.0,87,0.00,,,-99.99,VWS V12.07,2013-07-28 08:30:00,
2013-07-28 03:35:00,44.4,40.8,29.45,NE,45,0.0,0.0,87,0.00,,,-99.99,VWS V12.07,2013-07-28 08:35:00,
2013-07-28 03:40:00,44.4,40.8,29.45,NE,45,0.0,0.0,87,0.00,,,-99.99,VWS V12.07,2013-07-28 08:40:00,
2013-07-28 03:45:00,44.4,40.8,29.45,NE,45,0.0,0.0,87,0.00,,,-99.99,VWS V12.07,2013-07-28 08:45:00,
2013-07-28 03:50:00,44.4,40.8,29.45,NE,45,0.0,0.0,87,0.00,,,-99.99,VWS V12.07,2013-07-28 08:50:00,
2013-07-28 03:55:00,44.4,40.8,29.45,NE,45,0.0,0.0,87,0.00,,,-99.99,VWS V12.07,2013-07-28 08:55:00,
2013-07-28 04:00:00,44.4,40.8,29.45,NE,45,0.0,0.0,87,0.00,,,-99.99,VWS V12.07,2013-07-28 09:00:00,
2013-07-28 04:05:00,44.4,40.8,29.45,NE,45,0.0,0.0,87,0.00,,,-99.99,VWS V12.07,2013-07-28 09:05:00,
2013-07-28 04:10:00,44.4,40.8,29.44,NE,45,0.0,0.0,87,0.00,,,-99.99,VWS V12.07,2013-07-28 09:10:00,
2013-07-28 04:15:00,44.4,40.8,29.44,NE,45,0.0,0.0,87,0.00,,,-99.99,VWS V12.07,2013-07-28 09:15:00,
2013-07-28 04:25:00,44.4,40.8,29.45,NE,45,0.0,0.0,87,0.00,,,-99.99,VWS V12.07,2013-07-28 09:25:00,
2013-07-28 04:30:00,44.4,41.1,29.44,NE,45,0.0,0.0,88,0.00,,,-99.99,VWS V12.07,2013-07-28 09:30:00,
2013-07-28 04:35:00,44.4,41.1,29.44,NE,45,0.0,0.0,88,0.00,,,-99.99,VWS V12.07,2013-07-28 09:35:00,
2013-07-28 04:40:00,44.4,41.1,29.44,NE,45,0.0,0.0,88,0.00,,,-99.99,VWS V12.07,2013-07-28 09:40:00,
2013-07-28 04:45:00,44.4,41.1,29.44,NE,45,0.0,0.0,88,0.00,,,-99.99,VWS V12.07,2013-07-28 09:45:00,
2013-07-28 04:50:00,44.4,41.1,29.44,NE,45,0.0,0.0,88,0.00,,,-99.99,VWS V12.07,2013-07-28 09:50:00,
2013-07-28 04:55:00,44.4,41.1,29.44,NE,45,0.0,0.0,88,0.00,,,-99.99,VWS V12.07,2013-07-28 09:55:00,
2013-07-28 05:00:00,44.4,41.1,29.44,NE,45,0.0,0.0,88,0.00,,,-99.99,VWS V12.07,2013-07-28 10:00:00,
2013-07-28 05:05:00,44.4,41.1,29.44,NNE,22,0.0,0.0,88,0.00,,,-99.99,VWS V12.07,2013-07-28 10:05:00,
2013-07-28 05:10:00,44.6,41.3,29.44,NNE,22,0.0,0.0,88,0.00,,,-99.99,VWS V12.07,2013-07-28 10:10:00,
2013-07-28 05:15:00,44.6,41.3,29.44,NNE,22,0.0,0.0,88,0.00,,,-99.99,VWS V12.07,2013-07-28 10:15:00,
2013-07-28 05:25:00,44.7,41.4,29.44,NNE,22,0.0,0.0,88,0.00,,,-99.99,VWS V12.07,2013-07-28 10:25:00,
2013-07-28 05:30:00,44.7,41.4,29.44,NNE,22,0.0,0.0,88,0.00,,,-99.99,VWS V12.07,2013-07-28 10:30:00,
2013-07-28 05:35:00,44.9,41.6,29.44,NNE,22,0.0,0.0,88,0.00,,,-99.99,VWS V12.07,2013-07-28 10:35:00,
2013-07-28 05:45:00,44.9,41.6,29.44,NNE,22,0.0,0.0,88,0.00,,,-99.99,VWS V12.07,2013-07-28 10:45:00,
2013-07-28 05:50:00,44.9,41.6,29.44,NNE,22,0.0,0.0,88,0.00,,,-99.99,VWS V12.07,2013-07-28 10:50:00,
2013-07-28 05:55:00,45.1,42.1,29.44,NNE,22,0.0,0.0,89,0.00,,,-99.99,VWS V12.07,2013-07-28 10:55:00,
2013-07-28 06:00:00,45.1,42.1,29.43,NNE,22,0.0,0.0,89,0.00,,,-99.99,VWS V12.07,2013-07-28 11:00:00,
2013-07-28 06:05:00,45.3,42.3,29.44,NNE,22,0.0,0.0,89,0.00,,,-99.99,VWS V12.07,2013-07-28 11:05:00,
2013-07-28 06:10:00,45.3,42.3,29.43,NNE,22,0.0,0.0,89,0.00,,,-99.99,VWS V12.07,2013-07-28 11:10:00,
2013-07-28 06:15:00,45.3,42.3,29.43,SW,225,0.0,0.0,89,0.00,,,-99.99,VWS V12.07,2013-07-28 11:15:00,
2013-07-28 06:20:00,45.5,42.5,29.43,SW,225,0.0,0.0,89,0.00,,,-99.99,VWS V12.07,2013-07-28 11:20:00,
2013-07-28 06:25:00,45.5,42.5,29.43,SW,225,0.0,0.0,89,0.00,,,-99.99,VWS V12.07,2013-07-28 11:25:00,
2013-07-28 06:30:00,45.6,42.5,29.43,SW,225,0.0,0.0,89,0.00,,,-99.99,VWS V12.07,2013-07-28 11:30:00,
2013-07-28 06:35:00,45.8,42.8,29.43,SW,225,0.0,0.0,89,0.00,,,-99.99,VWS V12.07,2013-07-28 11:35:00,
2013-07-28 06:40:00,45.8,42.8,29.43,SW,225,0.0,0.0,89,0.00,,,-99.99,VWS V12.07,2013-07-28 11:40:00,
2013-07-28 06:45:00,46.0,43.0,29.43,SW,225,0.0,0.0,89,0.00,,,-99.99,VWS V12.07,2013-07-28 11:45:00,
2013-07-28 06:50:00,46.2,43.1,29.43,SW,225,0.0,0.0,89,0.00,,,-99.99,VWS V12.07,2013-07-28 11:50:00,
2013-07-28 06:55:00,46.2,43.1,29.43,SW,225,0.0,0.0,89,0.00,,,-99.99,VWS V12.07,2013-07-28 11:55:00,
2013-07-28 07:00:00,46.2,43.1,29.43,NNE,22,0.0,0.0,89,0.00,,,-99.99,VWS V12.07,2013-07-28 12:00:00,
2013-07-28 07:05:00,46.5,43.4,29.43,NNE,22,0.0,0.0,89,0.00,,,-99.99,VWS V12.07,2013-07-28 12:05:00,
2013-07-28 07:10:00,46.5,43.4,29.43,NNW,338,0.0,0.0,89,0.00,,,-99.99,VWS V12.07,2013-07-28 12:10:00,
2013-07-28 07:15:00,46.7,43.6,29.43,NNE,22,2.6,2.6,89,0.00,,,-99.99,VWS V12.07,2013-07-28 12:15:00,
2013-07-28 07:20:00,46.9,44.1,29.43,WNW,292,0.0,2.6,90,0.00,,,-99.99,VWS V12.07,2013-07-28 12:20:00,
2013-07-28 07:25:00,46.9,44.1,29.42,NE,45,2.0,2.6,90,0.00,,,-99.99,VWS V12.07,2013-07-28 12:25:00,
2013-07-28 07:30:00,47.1,44.3,29.43,WNW,292,0.0,2.6,90,0.00,,,-99.99,VWS V12.07,2013-07-28 12:30:00,
2013-07-28 07:35:00,47.3,44.5,29.43,WSW,248,0.0,0.0,90,0.00,,,-99.99,VWS V12.07,2013-07-28 12:35:00,
2013-07-28 07:45:00,47.6,44.8,29.43,West,270,0.0,0.0,90,0.00,,,-99.99,VWS V12.07,2013-07-28 12:45:00,
2013-07-28 07:50:00,47.8,45.0,29.43,North,0,0.0,0.0,90,0.00,,,-99.99,VWS V12.07,2013-07-28 12:50:00,
2013-07-28 07:55:00,48.0,45.2,29.43,NE,45,0.0,0.0,90,0.00,,,-99.99,VWS V12.07,2013-07-28 12:55:00,
2013-07-28 08:00:00,48.2,45.4,29.44,NW,315,0.0,1.5,90,0.00,,,-99.99,VWS V12.07,2013-07-28 13:00:00,
2013-07-28 08:05:00,48.2,45.4,29.44,NW,315,0.0,0.0,90,0.00,,,-99.99,VWS V12.07,2013-07-28 13:05:00,
2013-07-28 08:10:00,48.3,45.5,29.44,WSW,248,0.0,0.8,90,0.00,,,-99.99,VWS V12.07,2013-07-28 13:10:00,
2013-07-28 08:15:00,48.5,45.7,29.43,NW,315,0.0,0.8,90,0.00,,,-99.99,VWS V12.07,2013-07-28 13:15:00,
2013-07-28 08:20:00,48.7,45.9,29.44,NW,315,0.0,0.0,90,0.00,,,-99.99,VWS V12.07,2013-07-28 13:20:00,
2013-07-28 08:25:00,48.7,45.9,29.44,South,180,3.1,6.0,90,0.00,,,-99.99,VWS V12.07,2013-07-28 13:25:00,
2013-07-28 08:30:00,48.9,46.1,29.43,SW,225,0.0,6.0,90,0.00,,,-99.99,VWS V12.07,2013-07-28 13:30:00,
2013-07-28 08:35:00,49.1,46.3,29.44,North,0,3.8,3.8,90,0.00,,,-99.99,VWS V12.07,2013-07-28 13:35:00,
2013-07-28 08:40:00,49.1,46.3,29.44,WSW,248,2.0,3.8,90,0.00,,,-99.99,VWS V12.07,2013-07-28 13:40:00,
2013-07-28 08:45:00,49.2,46.4,29.44,NNW,338,2.0,3.8,90,0.00,,,-99.99,VWS V12.07,2013-07-28 13:45:00,
2013-07-28 08:50:00,49.2,46.4,29.44,NW,315,0.0,2.0,90,0.00,,,-99.99,VWS V12.07,2013-07-28 13:50:00,
2013-07-28 08:55:00,49.6,46.8,29.44,WNW,292,1.5,2.0,90,0.00,,,-99.99,VWS V12.07,2013-07-28 13:55:00,
2013-07-28 09:00:00,49.6,46.8,29.45,NNE,22,0.0,3.5,90,0.00,,,-99.99,VWS V12.07,2013-07-28 14:00:00,
2013-07-28 09:05:00,49.6,46.8,29.45,SW,225,0.0,2.0,90,0.00,,,-99.99,VWS V12.07,2013-07-28 14:05:00,
2013-07-28 09:15:00,49.8,47.0,29.46,NW,315,0.0,3.8,90,0.00,,,-99.99,VWS V12.07,2013-07-28 14:15:00,
2013-07-28 09:20:00,49.8,47.0,29.45,NW,315,0.0,1.1,90,0.00,,,-99.99,VWS V12.07,2013-07-28 14:20:00,
2013-07-28 09:25:00,49.8,47.0,29.45,NE,45,1.1,1.1,90,0.00,,,-99.99,VWS V12.07,2013-07-28 14:25:00,
2013-07-28 09:30:00,49.8,47.0,29.45,NW,315,0.0,2.4,90,0.00,,,-99.99,VWS V12.07,2013-07-28 14:30:00,
2013-07-28 09:35:00,50.1,47.3,29.45,NE,45,2.4,2.4,90,0.00,,,-99.99,VWS V12.07,2013-07-28 14:35:00,
2013-07-28 09:40:00,50.1,47.0,29.46,West,270,0.0,2.4,89,0.00,,,-99.99,VWS V12.07,2013-07-28 14:40:00,
2013-07-28 09:45:00,50.1,47.0,29.45,SSW,202,0.0,5.3,89,0.00,,,-99.99,VWS V12.07,2013-07-28 14:45:00,
2013-07-28 09:50:00,50.3,47.2,29.45,NNE,22,0.0,0.0,89,0.00,,,-99.99,VWS V12.07,2013-07-28 14:50:00,
2013-07-28 09:55:00,50.5,47.4,29.45,WNW,292,0.0,0.8,89,0.00,,,-99.99,VWS V12.07,2013-07-28 14:55:00,
2013-07-28 10:00:00,50.5,47.4,29.45,NE,45,0.0,0.8,89,0.00,,,-99.99,VWS V12.07,2013-07-28 15:00:00,
2013-07-28 10:05:00,50.5,47.4,29.45,WSW,248,0.6,4.6,89,0.00,,,-99.99,VWS V12.07,2013-07-28 15:05:00,
2013-07-28 10:10:00,50.7,47.6,29.44,NE,45,2.6,4.6,89,0.00,,,-99.99,VWS V12.07,2013-07-28 15:10:00,
2013-07-28 10:15:00,50.7,47.6,29.45,NE,45,0.8,4.6,89,0.00,,,-99.99,VWS V12.07,2013-07-28 15:15:00,
2013-07-28 10:20:00,50.9,47.8,29.45,West,270,0.0,0.8,89,0.00,,,-99.99,VWS V12.07,2013-07-28 15:20:00,
2013-07-28 10:25:00,51.0,47.9,29.44,NNW,338,0.0,4.9,89,0.00,,,-99.99,VWS V12.07,2013-07-28 15:25:00,
2013-07-28 10:30:00,51.2,48.1,29.44,NNE,22,0.6,4.9,89,0.00,,,-99.99,VWS V12.07,2013-07-28 15:30:00,
2013-07-28 10:35:00,51.4,48.3,29.44,West,270,2.0,2.0,89,0.00,,,-99.99,VWS V12.07,2013-07-28 15:35:00,
2013-07-28 10:40:00,51.4,48.3,29.44,NNW,338,0.0,2.0,89,0.00,,,-99.99,VWS V12.07,2013-07-28 15:40:00,
2013-07-28 10:45:00,51.2,48.1,29.45,WSW,248,0.0,2.0,89,0.00,,,-99.99,VWS V12.07,2013-07-28 15:45:00,
2013-07-28 10:55:00,51.4,48.3,29.46,SW,225,2.9,4.2,89,0.00,,,-99.99,VWS V12.07,2013-07-28 15:55:00,
2013-07-28 11:00:00,51.0,47.9,29.45,NE,45,0.0,4.2,89,0.00,,,-99.99,VWS V12.07,2013-07-28 16:00:00,
2013-07-28 11:10:00,51.2,48.1,29.47,SSW,202,1.5,1.5,89,0.00,,,-99.99,VWS V12.07,2013-07-28 16:10:00,
2013-07-28 11:15:00,51.6,48.5,29.47,WSW,248,0.6,1.5,89,0.00,,,-99.99,VWS V12.07,2013-07-28 16:15:00,
2013-07-28 11:20:00,51.8,48.7,29.46,WSW,248,0.0,0.6,89,0.00,,,-99.99,VWS V12.07,2013-07-28 16:20:00,
2013-07-28 11:25:00,51.9,48.8,29.47,West,270,2.9,2.9,89,0.00,,,-99.99,VWS V12.07,2013-07-28 16:25:00,
2013-07-28 11:30:00,52.5,49.4,29.46,WNW,292,0.0,2.9,89,0.00,,,-99.99,VWS V12.07,2013-07-28 16:30:00,
2013-07-28 11:35:00,52.7,49.5,29.47,SW,225,0.0,6.0,89,0.00,,,-99.99,VWS V12.07,2013-07-28 16:35:00,
2013-07-28 11:40:00,52.8,49.3,29.47,NNE,22,3.8,6.0,88,0.00,,,-99.99,VWS V12.07,2013-07-28 16:40:00,
2013-07-28 11:50:00,53.2,49.4,29.47,SW,225,0.0,0.0,87,0.00,,,-99.99,VWS V12.07,2013-07-28 16:50:00,
2013-07-28 11:55:00,53.4,49.6,29.47,ENE,68,0.6,0.6,87,0.00,,,-99.99,VWS V12.07,2013-07-28 16:55:00,
2013-07-28 12:00:00,53.7,49.9,29.47,WSW,248,3.5,3.5,87,0.00,,,-99.99,VWS V12.07,2013-07-28 17:00:00,
2013-07-28 12:05:00,53.7,49.9,29.47,NW,315,5.3,5.3,87,0.00,,,-99.99,VWS V12.07,2013-07-28 17:05:00,
2013-07-28 12:10:00,53.9,49.8,29.47,West,270,1.3,5.3,86,0.00,,,-99.99,VWS V12.07,2013-07-28 17:10:00,
2013-07-28 12:15:00,53.7,49.3,29.48,East,90,0.0,5.3,85,0.00,,,-99.99,VWS V12.07,2013-07-28 17:15:00,
2013-07-28 12:25:00,54.1,49.4,29.48,WNW,292,0.0,2.4,84,0.00,,,-99.99,VWS V12.07,2013-07-28 17:25:00,
2013-07-28 12:30:00,53.9,49.2,29.48,East,90,3.8,3.8,84,0.00,,,-99.99,VWS V12.07,2013-07-28 17:30:00,
2013-07-28 12:35:00,53.9,49.2,29.48,SSE,158,0.0,3.8,84,0.00,,,-99.99,VWS V12.07,2013-07-28 17:35:00,
2013-07-28 12:40:00,53.7,48.7,29.47,WSW,248,2.9,3.8,83,0.00,,,-99.99,VWS V12.07,2013-07-28 17:40:00,
2013-07-28 12:45:00,53.4,48.4,29.47,SW,225,2.0,6.0,83,0.00,,,-99.99,VWS V12.07,2013-07-28 17:45:00,
2013-07-28 12:50:00,53.4,48.4,29.47,NNE,22,8.7,8.7,83,0.00,,,-99.99,VWS V12.07,2013-07-28 17:50:00,
2013-07-28 12:55:00,53.4,48.4,29.47,West,270,0.0,8.7,83,0.00,,,-99.99,VWS V12.07,2013-07-28 17:55:00,
2013-07-28 13:00:00,53.2,48.5,29.47,West,270,1.1,8.7,84,0.00,,,-99.99,VWS V12.07,2013-07-28 18:00:00,
2013-07-28 13:05:00,53.4,48.7,29.47,WNW,292,2.4,2.4,84,0.00,,,-99.99,VWS V12.07,2013-07-28 18:05:00,
2013-07-28 13:10:00,53.4,48.7,29.47,ENE,68,3.3,3.3,84,0.00,,,-99.99,VWS V12.07,2013-07-28 18:10:00,
2013-07-28 13:15:00,53.4,48.7,29.47,West,270,4.6,4.6,84,0.00,,,-99.99,VWS V12.07,2013-07-28 18:15:00,
2013-07-28 13:20:00,53.4,48.7,29.47,West,270,1.7,4.6,84,0.00,,,-99.99,VWS V12.07,2013-07-28 18:20:00,
2013-07-28 13:25:00,53.4,48.7,29.47,NW,315,1.7,4.6,84,0.00,,,-99.99,VWS V12.07,2013-07-28 18:25:00,
2013-07-28 13:30:00,53.2,48.5,29.47,NE,45,2.4,4.6,84,0.00,,,-99.99,VWS V12.07,2013-07-28 18:30:00,
2013-07-28 13:35:00,53.2,48.5,29.47,WSW,248,0.0,2.4,84,0.00,,,-99.99,VWS V12.07,2013-07-28 18:35:00,
2013-07-28 13:40:00,53.2,48.5,29.47,SW,225,2.9,2.9,84,0.00,,,-99.99,VWS V12.07,2013-07-28 18:40:00,
2013-07-28 13:45:00,53.2,48.8,29.47,NNW,338,0.0,2.9,85,0.00,,,-99.99,VWS V12.07,2013-07-28 18:45:00,
2013-07-28 13:50:00,53.2,48.8,29.47,WNW,292,0.0,2.2,85,0.00,,,-99.99,VWS V12.07,2013-07-28 18:50:00,
2013-07-28 13:55:00,52.8,48.4,29.47,NNW,338,0.0,2.2,85,0.00,,,-99.99,VWS V12.07,2013-07-28 18:55:00,
2013-07-28 14:00:00,52.8,48.4,29.47,NW,315,0.0,2.2,85,0.00,,,-99.99,VWS V12.07,2013-07-28 19:00:00,
2013-07-28 14:10:00,52.5,48.4,29.47,SW,225,0.0,2.2,86,0.00,,,-99.99,VWS V12.07,2013-07-28 19:10:00,
2013-07-28 14:15:00,52.5,48.4,29.47,ENE,68,4.2,4.2,86,0.00,,,-99.99,VWS V12.07,2013-07-28 19:15:00,
2013-07-28 14:20:00,52.3,48.2,29.48,SSW,202,1.7,4.2,86,0.00,,,-99.99,VWS V12.07,2013-07-28 19:20:00,
2013-07-28 14:25:00,52.3,48.2,29.49,NW,315,0.0,4.2,86,0.00,,,-99.99,VWS V12.07,2013-07-28 19:25:00,
2013-07-28 14:30:00,52.3,48.5,29.50,WSW,248,3.5,4.2,87,0.00,,,-99.99,VWS V12.07,2013-07-28 19:30:00,
2013-07-28 14:35:00,52.3,48.5,29.50,WSW,248,4.9,4.9,87,0.00,,,-99.99,VWS V12.07,2013-07-28 19:35:00,
2013-07-28 14:40:00,52.5,48.8,29.50,SW,225,0.0,4.9,87,0.00,,,-99.99,VWS V12.07,2013-07-28 19:40:00,
2013-07-28 14:45:00,52.5,48.8,29.51,NE,45,0.0,4.9,87,0.00,,,-99.99,VWS V12.07,2013-07-28 19:45:00,
2013-07-28 14:50:00,52.5,48.8,29.51,North,0,2.9,2.9,87,0.00,,,-99.99,VWS V12.07,2013-07-28 19:50:00,
2013-07-28 14:55:00,52.5,48.8,29.50,West,270,3.3,3.3,87,0.00,,,-99.99,VWS V12.07,2013-07-28 19:55:00,
2013-07-28 15:05:00,52.7,49.0,29.50,SSW,202,3.3,6.7,87,0.00,,,-99.99,VWS V12.07,2013-07-28 20:05:00,
2013-07-28 15:10:00,52.8,49.0,29.50,NW,315,2.4,6.7,87,0.00,,,-99.99,VWS V12.07,2013-07-28 20:10:00,
2013-07-28 15:15:00,52.8,48.7,29.50,West,270,2.2,6.7,86,0.00,,,-99.99,VWS V12.07,2013-07-28 20:15:00,
2013-07-28 15:20:00,52.7,48.6,29.51,NNW,338,0.0,2.2,86,0.00,,,-99.99,VWS V12.07,2013-07-28 20:20:00,
2013-07-28 15:25:00,52.7,48.6,29.52,WNW,292,1.7,2.2,86,0.00,,,-99.99,VWS V12.07,2013-07-28 20:25:00,
2013-07-28 15:30:00,52.5,48.4,29.52,WSW,248,1.5,6.0,86,0.00,,,-99.99,VWS V12.07,2013-07-28 20:30:00,
2013-07-28 15:35:00,52.5,48.4,29.52,WNW,292,2.0,2.0,86,0.00,,,-99.99,VWS V12.07,2013-07-28 20:35:00,
2013-07-28 15:40:00,52.3,48.2,29.52,NW,315,2.4,6.4,86,0.00,,,-99.99,VWS V12.07,2013-07-28 20:40:00,
2013-07-28 15:45:00,52.3,48.2,29.52,NW,315,0.0,6.4,86,0.00,,,-99.99,VWS V12.07,2013-07-28 20:45:00,
2013-07-28 15:50:00,52.3,48.2,29.52,North,0,2.4,2.4,86,0.00,,,-99.99,VWS V12.07,2013-07-28 20:50:00,
2013-07-28 15:55:00,52.3,48.2,29.53,NE,45,6.9,6.9,86,0.00,,,-99.99,VWS V12.07,2013-07-28 20:55:00,
2013-07-28 16:00:00,52.3,48.5,29.54,NE,45,0.0,6.9,87,0.00,,,-99.99,VWS V12.07,2013-07-28 21:00:00,
2013-07-28 16:05:00,52.3,48.5,29.54,West,270,0.0,0.0,87,0.00,,,-99.99,VWS V12.07,2013-07-28 21:05:00,
2013-07-28 16:15:00,52.5,48.8,29.53,WNW,292,2.0,2.6,87,0.00,,,-99.99,VWS V12.07,2013-07-28 21:15:00,
2013-07-28 16:20:00,52.5,48.8,29.53,ENE,68,1.5,6.2,87,0.00,,,-99.99,VWS V12.07,2013-07-28 21:20:00,
2013-07-28 16:25:00,52.5,48.8,29.53,ENE,68,2.4,6.2,87,0.00,,,-99.99,VWS V12.07,2013-07-28 21:25:00,
2013-07-28 16:30:00,52.5,48.8,29.52,WSW,248,2.2,6.2,87,0.00,,,-99.99,VWS V12.07,2013-07-28 21:30:00,
2013-07-28 16:35:00,52.3,48.5,29.52,West,270,3.1,3.1,87,0.00,,,-99.99,VWS V12.07,2013-07-28 21:35:00,
2013-07-28 16:45:00,52.3,48.5,29.51,SW,225,0.0,4.6,87,0.00,,,-99.99,VWS V12.07,2013-07-28 21:45:00,
2013-07-28 16:50:00,52.3,48.5,29.51,SW,225,0.0,2.2,87,0.00,,,-99.99,VWS V12.07,2013-07-28 21:50:00,
2013-07-28 16:55:00,52.3,48.5,29.50,NNE,22,0.0,2.2,87,0.00,,,-99.99,VWS V12.07,2013-07-28 21:55:00,
2013-07-28 17:00:00,52.3,48.5,29.51,NW,315,0.6,2.2,87,0.00,,,-99.99,VWS V12.07,2013-07-28 22:00:00,
2013-07-28 17:10:00,52.1,48.7,29.51,NNE,22,0.0,4.9,88,0.00,,,-99.99,VWS V12.07,2013-07-28 22:10:00,
2013-07-28 17:15:00,52.3,48.9,29.51,WNW,292,1.1,4.9,88,0.00,,,-99.99,VWS V12.07,2013-07-28 22:15:00,
2013-07-28 17:20:00,52.3,48.9,29.52,NW,315,2.0,2.2,88,0.00,,,-99.99,VWS V12.07,2013-07-28 22:20:00,
2013-07-28 17:25:00,52.3,48.9,29.52,NW,315,4.6,4.6,88,0.00,,,-99.99,VWS V12.07,2013-07-28 22:25:00,
2013-07-28 17:30:00,52.5,49.0,29.52,ENE,68,3.8,4.6,88,0.00,,,-99.99,VWS V12.07,2013-07-28 22:30:00,
2013-07-28 17:35:00,52.5,49.0,29.53,West,270,0.0,3.8,88,0.00,,,-99.99,VWS V12.07,2013-07-28 22:35:00,
2013-07-28 17:45:00,52.3,48.9,29.53,NNW,338,0.0,5.3,88,0.00,,,-99.99,VWS V12.07,2013-07-28 22:45:00,
2013-07-28 17:50:00,52.3,48.5,29.53,NE,45,2.9,3.1,87,0.00,,,-99.99,VWS V12.07,2013-07-28 22:50:00,
2013-07-28 17:55:00,51.9,48.2,29.53,West,270,3.1,3.1,87,0.00,,,-99.99,VWS V12.07,2013-07-28 22:55:00,
2013-07-28 18:00:00,51.8,48.1,29.53,NE,45,0.0,3.1,87,0.00,,,-99.99,VWS V12.07,2013-07-28 23:00:00,
2013-07-28 18:05:00,51.6,48.2,29.53,ENE,68,0.0,6.0,88,0.00,,,-99.99,VWS V12.07,2013-07-28 23:05:00,
2013-07-28 18:10:00,51.6,48.2,29.53,NNE,22,1.3,6.0,88,0.00,,,-99.99,VWS V12.07,2013-07-28 23:10:00,
2013-07-28 18:15:00,51.6,48.2,29.53,NE,45,2.9,6.0,88,0.00,,,-99.99,VWS V12.07,2013-07-28 23:15:00,
2013-07-28 18:20:00,51.6,48.2,29.53,WNW,292,0.0,2.9,88,0.00,,,-99.99,VWS V12.07,2013-07-28 23:20:00,
2013-07-28 18:25:00,51.6,48.2,29.54,East,90,0.0,2.9,88,0.00,,,-99.99,VWS V12.07,2013-07-28 23:25:00,
2013-07-28 18:30:00,51.6,47.9,29.54,WNW,292,10.5,10.5,87,0.00,,,-99.99,VWS V12.07,2013-07-28 23:30:00,
2013-07-28 18:35:00,51.4,47.7,29.54,NNE,22,3.3,10.5,87,0.00,,,-99.99,VWS V12.07,2013-07-28 23:35:00,
2013-07-28 18:40:00,51.4,47.7,29.54,ENE,68,0.0,10.5,87,0.00,,,-99.99,VWS V12.07,2013-07-28 23:40:00,
2013-07-28 18:45:00,51.4,47.7,29.54,West,270,1.7,10.5,87,0.00,,,-99.99,VWS V12.07,2013-07-28 23:45:00,
2013-07-28 18:50:00,51.4,47.7,29.55,WNW,292,0.4,1.7,87,0.00,,,-99.99,VWS V12.07,2013-07-28 23:50:00,
2013-07-28 18:55:00,51.4,47.7,29.54,NNW,338,0.0,8.9,87,0.00,,,-99.99,VWS V12.07,2013-07-28 23:55:00,
2013-07-28 19:05:00,51.0,47.3,29.55,NE,45,2.0,2.0,87,0.00,,,-99.99,VWS V12.07,2013-07-29 00:05:00,
2013-07-28 19:10:00,51.0,47.3,29.55,North,0,4.6,4.6,87,0.00,,,-99.99,VWS V12.07,2013-07-29 00:10:00,
2013-07-28 19:15:00,50.9,47.2,29.55,NE,45,0.0,4.6,87,0.00,,,-99.99,VWS V12.07,2013-07-29 00:15:00,
2013-07-28 19:20:00,51.0,47.3,29.55,NNE,22,4.2,4.2,87,0.00,,,-99.99,VWS V12.07,2013-07-29 00:20:00,
2013-07-28 19:25:00,51.0,47.3,29.55,NNE,22,4.4,4.4,87,0.00,,,-99.99,VWS V12.07,2013-07-29 00:25:00,
2013-07-28 19:30:00,50.9,47.2,29.56,NNE,22,2.4,5.5,87,0.00,,,-99.99,VWS V12.07,2013-07-29 00:30:00,
2013-07-28 19:35:00,50.9,47.2,29.56,NE,45,6.0,6.0,87,0.00,,,-99.99,VWS V12.07,2013-07-29 00:35:00,
2013-07-28 19:40:00,50.7,47.0,29.57,North,0,4.4,6.0,87,0.00,,,-99.99,VWS V12.07,2013-07-29 00:40:00,
2013-07-28 19:45:00,50.7,47.0,29.57,WNW,292,0.0,6.0,87,0.00,,,-99.99,VWS V12.07,2013-07-29 00:45:00,
2013-07-28 19:50:00,50.7,47.0,29.57,NNE,22,0.0,0.0,87,0.00,,,-99.99,VWS V12.07,2013-07-29 00:50:00,
2013-07-28 19:55:00,50.5,46.8,29.57,NNE,22,5.1,5.1,87,0.00,,,-99.99,VWS V12.07,2013-07-29 00:55:00,
2013-07-28 20:00:00,50.5,46.8,29.57,NNE,22,0.0,5.1,87,0.00,,,-99.99,VWS V12.07,2013-07-29 01:00:00,
2013-07-28 20:05:00,50.3,46.6,29.57,ENE,68,3.3,3.3,87,0.00,,,-99.99,VWS V12.07,2013-07-29 01:05:00,
2013-07-28 20:10:00,50.1,46.4,29.57,NNE,22,0.0,3.3,87,0.00,,,-99.99,VWS V12.07,2013-07-29 01:10:00,
2013-07-28 20:15:00,50.1,46.4,29.57,WNW,292,0.0,5.8,87,0.00,,,-99.99,VWS V12.07,2013-07-29 01:15:00,
2013-07-28 20:20:00,50.1,46.4,29.57,NNE,22,4.6,4.6,87,0.00,,,-99.99,VWS V12.07,2013-07-29 01:20:00,
2013-07-28 20:30:00,50.0,46.3,29.58,SE,135,0.0,4.6,87,0.00,,,-99.99,VWS V12.07,2013-07-29 01:30:00,
2013-07-28 20:35:00,49.8,46.1,29.58,SW,225,1.7,5.8,87,0.00,,,-99.99,VWS V12.07,2013-07-29 01:35:00,
2013-07-28 20:40:00,49.8,46.1,29.58,NNW,338,0.0,7.6,87,0.00,,,-99.99,VWS V12.07,2013-07-29 01:40:00,
2013-07-28 20:45:00,49.8,46.1,29.57,North,0,0.0,10.0,87,0.00,,,-99.99,VWS V12.07,2013-07-29 01:45:00,
2013-07-28 20:55:00,49.8,46.1,29.58,NE,45,1.5,5.1,87,0.00,,,-99.99,VWS V12.07,2013-07-29 01:55:00,
2013-07-28 21:00:00,49.8,46.1,29.57,North,0,0.8,5.1,87,0.00,,,-99.99,VWS V12.07,2013-07-29 02:00:00,
2013-07-28 21:05:00,49.8,46.1,29.58,NE,45,0.0,1.1,87,0.00,,,-99.99,VWS V12.07,2013-07-29 02:05:00,
2013-07-28 21:10:00,49.6,45.9,29.57,SW,225,2.0,2.0,87,0.00,,,-99.99,VWS V12.07,2013-07-29 02:10:00,
2013-07-28 21:15:00,49.6,45.9,29.58,WNW,292,0.0,2.0,87,0.00,,,-99.99,VWS V12.07,2013-07-29 02:15:00,
2013-07-28 21:20:00,49.6,45.9,29.58,North,0,2.9,2.9,87,0.00,,,-99.99,VWS V12.07,2013-07-29 02:20:00,
2013-07-28 21:25:00,49.4,45.7,29.59,NW,315,0.0,2.9,87,0.00,,,-99.99,VWS V12.07,2013-07-29 02:25:00,
2013-07-28 21:30:00,49.2,45.5,29.59,WSW,248,1.3,2.9,87,0.00,,,-99.99,VWS V12.07,2013-07-29 02:30:00,
2013-07-28 21:35:00,49.2,45.5,29.59,NE,45,0.0,1.3,87,0.00,,,-99.99,VWS V12.07,2013-07-29 02:35:00,
2013-07-28 21:40:00,49.2,45.5,29.59,West,270,0.0,1.3,87,0.00,,,-99.99,VWS V12.07,2013-07-29 02:40:00,
2013-07-28 21:45:00,49.2,45.5,29.59,WNW,292,5.8,5.8,87,0.00,,,-99.99,VWS V12.07,2013-07-29 02:45:00,
2013-07-28 21:50:00,49.2,45.5,29.59,NNW,338,3.5,5.8,87,0.00,,,-99.99,VWS V12.07,2013-07-29 02:50:00,
2013-07-28 21:55:00,49.2,45.5,29.60,NW,315,0.0,5.8,87,0.00,,,-99.99,VWS V12.07,2013-07-29 02:55:00,
2013-07-28 22:05:00,49.2,45.5,29.60,ENE,68,3.3,3.3,87,0.00,,,-99.99,VWS V12.07,2013-07-29 03:05:00,
2013-07-28 22:15:00,49.2,45.5,29.60,NNW,338,3.3,4.4,87,0.00,,,-99.99,VWS V12.07,2013-07-29 03:15:00,
2013-07-28 22:20:00,49.2,45.5,29.60,NNE,22,0.0,3.3,87,0.00,,,-99.99,VWS V12.07,2013-07-29 03:20:00,
2013-07-28 22:25:00,49.2,45.5,29.60,SW,225,0.0,3.3,87,0.00,,,-99.99,VWS V12.07,2013-07-29 03:25:00,
2013-07-28 22:30:00,49.2,45.5,29.60,NE,45,0.0,3.3,87,0.00,,,-99.99,VWS V12.07,2013-07-29 03:30:00,
2013-07-28 22:35:00,49.2,45.5,29.60,NNE,22,0.4,2.0,87,0.00,,,-99.99,VWS V12.07,2013-07-29 03:35:00,
2013-07-28 22:45:00,49.1,45.4,29.60,SW,225,0.0,5.5,87,0.00,,,-99.99,VWS V12.07,2013-07-29 03:45:00,
2013-07-28 22:50:00,49.1,45.7,29.60,NW,315,0.0,0.0,88,0.00,,,-99.99,VWS V12.07,2013-07-29 03:50:00,
2013-07-28 22:55:00,49.1,45.7,29.60,North,0,0.0,0.0,88,0.00,,,-99.99,VWS V12.07,2013-07-29 03:55:00,
2013-07-28 23:00:00,49.1,45.7,29.60,North,0,0.6,1.7,88,0.00,,,-99.99,VWS V12.07,2013-07-29 04:00:00,
2013-07-28 23:05:00,49.1,45.7,29.60,North,0,0.0,0.6,88,0.00,,,-99.99,VWS V12.07,2013-07-29 04:05:00,
2013-07-28 23:10:00,48.9,45.5,29.60,North,0,0.6,0.6,88,0.00,,,-99.99,VWS V12.07,2013-07-29 04:10:00,
2013-07-28 23:15:00,48.9,45.5,29.61,North,0,0.0,5.1,88,0.00,,,-99.99,VWS V12.07,2013-07-29 04:15:00,
2013-07-28 23:20:00,49.1,45.7,29.61,NNW,338,0.0,0.0,88,0.00,,,-99.99,VWS V12.07,2013-07-29 04:20:00,
2013-07-28 23:25:00,49.1,45.7,29.61,NW,315,0.0,0.0,88,0.00,,,-99.99,VWS V12.07,2013-07-29 04:25:00,
2013-07-28 23:30:00,49.1,45.7,29.61,NW,315,0.0,0.0,88,0.00,,,-99.99,VWS V12.07,2013-07-29 04:30:00,
2013-07-28 23:35:00,49.1,45.7,29.61,NE,45,0.6,0.6,88,0.00,,,-99.99,VWS V12.07,2013-07-29 04:35:00,
2013-07-28 23:40:00,49.1,45.7,29.61,NE,45,0.6,2.2,88,0.00,,,-99.99,VWS V12.07,2013-07-29 04:40:00,
2013-07-28 23:45:00,49.1,45.7,29.61,NE,45,0.6,2.2,88,0.00,,,-99.99,VWS V12.07,2013-07-29 04:45:00,
2013-07-28 23:50:00,49.2,45.8,29.61,NNW,338,0.0,0.6,88,0.00,,,-99.99,VWS V12.07,2013-07-29 04:50:00,
2013-07-28 23:55:00,49.2,46.1,29.61,WSW,248,0.0,0.6,89,0.00,,,-99.99,VWS V12.07,2013-07-29 04:55:00,